TimeEDT,TemperatureF,Dew PointF,Humidity,Sea Level PressureIn,VisibilityMPH,Wind Direction,Wind SpeedMPH,Gust SpeedMPH,PrecipitationIn,Events,Conditions,WindDirDegrees,DateUTC
12:07 AM,66.2,60.8,83,30.09,10.0,NNE,3.5,-,N/A,,Overcast,30,2013-07-13 04:07:00
12:54 AM,66.0,60.1,81,30.02,10.0,Calm,Calm,-,0.00,,Overcast,0,2013-07-13 04:54:00
1:54 AM,64.9,61.0,87,30.03,10.0,SSW,3.5,-,0.00,,Overcast,200,2013-07-13 05:54:00
2:54 AM,64.0,61.0,90,30.02,10.0,South,3.5,-,0.00,,Overcast,180,2013-07-13 06:54:00
3:21 AM,64.4,60.8,88,30.09,10.0,Calm,Calm,-,N/A,,Mostly Cloudy,0,2013-07-13 07:21:00
3:54 AM,64.0,61.0,90,30.02,10.0,Calm,Calm,-,N/A,,Partly Cloudy,0,2013-07-13 07:54:00
4:54 AM,63.0,61.0,93,30.02,10.0,Calm,Calm,-,N/A,,Partly Cloudy,0,2013-07-13 08:54:00
5:11 AM,62.6,62.6,100,30.09,10.0,Calm,Calm,-,N/A,,Mostly Cloudy,0,2013-07-13 09:11:00
5:43 AM,64.4,62.6,94,30.11,10.0,South,4.6,-,N/A,,Overcast,190,2013-07-13 09:43:00
5:54 AM,64.0,62.1,93,30.04,10.0,South,3.5,-,N/A,,Mostly Cloudy,190,2013-07-13 09:54:00
6:28 AM,64.4,62.6,94,30.11,10.0,Calm,Calm,-,N/A,,Overcast,0,2013-07-13 10:28:00
6:54 AM,64.9,62.1,90,30.06,10.0,Calm,Calm,-,N/A,,Overcast,0,2013-07-13 10:54:00
7:28 AM,64.4,62.6,94,30.12,10.0,Calm,Calm,-,N/A,,Mostly Cloudy,0,2013-07-13 11:28:00
7:54 AM,66.0,62.1,87,30.07,10.0,Calm,Calm,-,N/A,,Overcast,0,2013-07-13 11:54:00
8:42 AM,66.2,62.6,88,30.14,10.0,Calm,Calm,-,N/A,,Overcast,0,2013-07-13 12:42:00
8:54 AM,66.0,62.1,87,30.09,10.0,Calm,Calm,-,N/A,,Overcast,0,2013-07-13 12:54:00
9:54 AM,66.9,63.0,87,30.11,10.0,ESE,5.8,-,N/A,,Overcast,120,2013-07-13 13:54:00
10:54 AM,68.0,63.0,84,30.12,10.0,Variable,6.9,-,N/A,,Overcast,0,2013-07-13 14:54:00
11:27 AM,69.8,62.6,78,30.18,10.0,SE,5.8,-,N/A,,Overcast,130,2013-07-13 15:27:00
11:54 AM,70.0,64.0,81,30.12,10.0,SE,5.8,-,N/A,,Overcast,140,2013-07-13 15:54:00
12:31 PM,71.6,62.6,73,30.19,10.0,East,5.8,-,N/A,,Overcast,100,2013-07-13 16:31:00
12:54 PM,73.0,64.0,73,30.12,10.0,Variable,6.9,-,N/A,,Overcast,0,2013-07-13 16:54:00
1:31 PM,73.4,64.4,73,30.18,10.0,SE,8.1,-,N/A,,Overcast,130,2013-07-13 17:31:00
1:54 PM,73.0,64.0,73,30.11,10.0,Variable,4.6,-,N/A,,Overcast,0,2013-07-13 17:54:00
2:11 PM,73.4,64.4,73,30.17,10.0,Variable,4.6,-,N/A,,Overcast,0,2013-07-13 18:11:00
2:20 PM,73.4,64.4,73,30.17,10.0,Variable,5.8,-,N/A,,Overcast,0,2013-07-13 18:20:00
2:54 PM,73.9,64.0,71,30.10,10.0,Variable,4.6,-,0.00,,Mostly Cloudy,0,2013-07-13 18:54:00
3:54 PM,73.0,64.0,73,30.10,10.0,Variable,5.8,-,N/A,,Mostly Cloudy,0,2013-07-13 19:54:00
4:54 PM,73.9,64.9,73,30.09,10.0,Variable,3.5,-,N/A,,Partly Cloudy,0,2013-07-13 20:54:00
5:54 PM,73.9,63.0,68,30.09,10.0,East,4.6,-,N/A,,Mostly Cloudy,90,2013-07-13 21:54:00
6:54 PM,73.0,64.0,73,30.09,10.0,SE,3.5,-,N/A,,Overcast,130,2013-07-13 22:54:00
7:15 PM,73.4,64.4,73,30.15,10.0,Variable,3.5,-,N/A,,Overcast,0,2013-07-13 23:15:00
7:38 PM,71.6,64.4,78,30.16,10.0,Calm,Calm,-,N/A,,Mostly Cloudy,0,2013-07-13 23:38:00
7:54 PM,72.0,64.0,76,30.10,10.0,Calm,Calm,-,N/A,,Scattered Clouds,0,2013-07-13 23:54:00
8:26 PM,71.6,64.4,78,30.17,10.0,Calm,Calm,-,N/A,,Mostly Cloudy,0,2013-07-14 00:26:00
8:36 PM,71.6,64.4,78,30.18,10.0,Calm,Calm,-,N/A,,Overcast,0,2013-07-14 00:36:00
8:54 PM,72.0,64.0,76,30.11,10.0,Calm,Calm,-,N/A,,Overcast,0,2013-07-14 00:54:00
9:23 PM,69.8,66.2,88,30.18,10.0,WSW,3.5,-,0.00,,Overcast,240,2013-07-14 01:23:00
9:54 PM,71.1,64.9,81,30.12,10.0,Calm,Calm,-,0.00,Rain,Light Rain,0,2013-07-14 01:54:00
10:29 PM,69.8,66.2,88,30.18,10.0,Calm,Calm,-,0.00,,Overcast,0,2013-07-14 02:29:00
10:49 PM,69.8,66.2,88,30.18,10.0,Calm,Calm,-,0.00,,Overcast,0,2013-07-14 02:49:00
10:54 PM,70.0,64.9,84,30.12,10.0,Calm,Calm,-,0.00,,Overcast,0,2013-07-14 02:54:00
11:13 PM,69.8,66.2,88,30.18,10.0,Calm,Calm,-,N/A,,Overcast,0,2013-07-14 03:13:00
11:54 PM,69.1,66.9,93,30.11,10.0,WSW,5.8,-,0.00,,Overcast,250,2013-07-14 03:54:00